TimeEST,TemperatureF,Dew PointF,Humidity,Sea Level PressureIn,VisibilityMPH,Wind Direction,Wind SpeedMPH,Gust SpeedMPH,PrecipitationIn,Events,Conditions,WindDirDegrees,DateUTC
12:54 AM,41.0,32.0,70,29.86,10.0,West,12.7,-,N/A,,Clear,280,2012-12-30 05:54:00
1:54 AM,41.0,32.0,70,29.89,10.0,WNW,13.8,-,N/A,,Clear,290,2012-12-30 06:54:00
2:54 AM,39.9,32.0,73,29.93,10.0,WNW,9.2,-,N/A,,Clear,290,2012-12-30 07:54:00
3:54 AM,37.9,30.9,76,29.96,10.0,West,9.2,-,N/A,,Clear,280,2012-12-30 08:54:00
4:54 AM,37.9,30.9,76,29.99,10.0,West,10.4,-,N/A,,Clear,270,2012-12-30 09:54:00
5:54 AM,37.9,34.0,86,30.03,10.0,West,12.7,-,N/A,,Clear,280,2012-12-30 10:54:00
6:54 AM,37.0,30.9,79,30.08,10.0,West,12.7,-,N/A,,Clear,280,2012-12-30 11:54:00
7:54 AM,37.9,-9999,N/A,30.12,10.0,West,12.7,-,N/A,,Clear,270,2012-12-30 12:54:00
8:54 AM,39.9,34.0,79,30.15,10.0,WNW,16.1,-,N/A,,Clear,290,2012-12-30 13:54:00
9:54 AM,43.0,27.0,53,30.20,10.0,WNW,19.6,26.5,N/A,,Clear,290,2012-12-30 14:54:00
10:54 AM,45.0,27.0,49,30.21,10.0,WNW,17.3,28.8,N/A,,Clear,300,2012-12-30 15:54:00
11:54 AM,46.9,25.0,42,30.20,10.0,WNW,25.3,29.9,N/A,,Partly Cloudy,300,2012-12-30 16:54:00
12:54 PM,46.9,23.0,39,30.20,10.0,NW,17.3,28.8,N/A,,Partly Cloudy,320,2012-12-30 17:54:00
1:54 PM,48.0,23.0,37,30.20,10.0,NW,17.3,26.5,N/A,,Partly Cloudy,310,2012-12-30 18:54:00
2:54 PM,48.0,21.0,34,30.23,10.0,WNW,16.1,24.2,N/A,,Clear,300,2012-12-30 19:54:00
3:54 PM,46.9,21.9,37,30.25,10.0,WNW,18.4,-,N/A,,Clear,290,2012-12-30 20:54:00
4:54 PM,44.1,21.9,42,30.29,10.0,WNW,9.2,-,N/A,,Clear,290,2012-12-30 21:54:00
5:54 PM,39.0,23.0,53,30.31,10.0,West,5.8,-,N/A,,Clear,260,2012-12-30 22:54:00
6:54 PM,37.9,30.9,76,30.31,10.0,WSW,4.6,-,N/A,,Clear,250,2012-12-30 23:54:00
7:54 PM,37.0,30.0,76,30.32,10.0,SW,4.6,-,N/A,,Clear,220,2012-12-31 00:54:00
8:54 PM,35.1,30.9,85,30.34,10.0,WSW,9.2,-,N/A,,Clear,240,2012-12-31 01:54:00
9:54 PM,37.0,34.0,89,30.35,10.0,WSW,6.9,-,N/A,,Clear,250,2012-12-31 02:54:00
10:54 PM,36.0,-9999,N/A,30.37,10.0,WSW,6.9,-,N/A,,Clear,250,2012-12-31 03:54:00
11:54 PM,37.0,-9999,N/A,30.35,10.0,WSW,6.9,-,N/A,,Clear,250,2012-12-31 04:54:00